[[{"header":{"parameterUnit":"m.s-1","parameterCategory":1,"la1":30.2991,"la2":30.254,"lo1":-89.0895,"lo2":-89.0444,"dy":0.0017,"dx":0.0017,"nx":28,"ny":28,"refTime":"2024-07-13T03:00:00:Z","depth":0,"parameterNumber":2,"parameterNumberName":"U-component_of_WINDS"},"data":[0,0,0,0,0,0,0,0,0,0,0,0,0,0,0,0,0,0,0,0,0,0,0,0,0,0,0,0,0,0,0,0,0,0,0,0,0,0,0,0,0,0,0,0,0,0,0,0,0,0,0,0,0,0,0,0,0,0,1.2307,1.2308,0,1.2439,1.2441,1.2442,1.2463,1.2462,1.2461,1.246,1.26,1.2604,1.2609,0,0,0,0,0,0,0,0,0,0,0,0,0,1.2076,1.208,1.2307,1.2309,1.231,1.2439,1.2441,1.2443,1.2463,1.2462,1.246,1.2459,1.2598,1.2604,1.261,0,0,0,0,0,0,0,0,0,0,0,0,0,1.2189,1.2081,1.2307,1.2336,1.234,1.2439,1.2441,1.2443,1.2464,1.2462,1.246,1.2458,1.2596,1.2603,1.261,1.2691,0,0,1.2633,1.2636,0,0,0,0,0,0,0,0,1.2183,1.2198,1.233,1.2334,1.2339,1.2433,1.2411,1.2526,1.2464,1.2417,1.246,1.2458,1.2546,1.2557,1.2586,1.2697,1.2703,1.2633,1.2638,1.2641,1.2643,0,0,0,0,0,0,0,1.2175,1.2192,1.2359,1.2332,1.2337,1.2344,1.2358,1.2433,1.249,1.2421,1.2423,1.2438,1.2548,1.2579,1.259,1.2705,1.2633,1.264,1.2644,1.2647,1.2888,1.289,0,0,0,0,0,0,1.2161,1.2185,1.2355,1.2363,1.2255,1.2349,1.2365,1.2404,1.2489,1.25,1.2439,1.2438,1.2568,1.2581,1.2595,1.2693,1.2641,1.2648,1.2652,1.2886,1.2889,1.2891,0,0,0,0,0,0,1.2156,1.2176,1.235,1.2275,1.2298,1.2355,1.2399,1.2408,1.2439,1.2503,1.2514,1.246,1.2567,1.2584,1.2666,1.2699,1.2651,1.2657,1.2884,1.2887,1.289,1.2892,0,0,0,0,0,0,1.2149,1.2174,1.2204,1.2275,1.2301,1.2418,1.2401,1.2412,1.2451,1.2451,1.2525,1.2536,1.2567,1.2655,1.2673,1.2708,1.2663,1.2881,1.2885,1.2889,1.2889,1.2895,1.2899,0,0,0,0,0,1.2141,1.2201,1.2206,1.2226,1.234,1.242,1.2435,1.2468,1.2453,1.2485,1.2526,1.2534,1.2692,1.2663,1.2684,1.2721,1.2879,1.2884,1.2889,1.2887,1.2894,1.2899,0,0,0,0,0,0,1.2134,1.2211,1.2217,1.2301,1.2354,1.2423,1.2464,1.2474,1.2533,1.253,1.257,1.2587,1.2666,1.2702,1.2669,1.2803,1.2785,1.2794,1.2776,1.2783,1.2788,1.2778,1.2669,0,0,0,0,0,1.2141,1.2198,1.2263,1.2331,1.2357,1.2406,1.2442,1.2462,1.2519,1.2542,1.2589,1.2644,1.2707,1.2747,1.2808,1.2895,1.2911,1.293,1.2935,1.2939,1.2946,1.2994,1.3003,1.2907,1.2906,1.2906,0,0,1.2159,1.2208,1.2242,1.2331,1.2374,1.2433,1.2424,1.2488,1.2532,1.2552,1.2631,1.2668,1.2733,1.2817,1.2856,1.2849,1.2977,1.2945,1.2948,1.2953,1.3,1.3009,1.3017,1.291,1.2909,1.2909,0,0,1.222,1.2263,1.2324,1.2367,1.2432,1.2464,1.2478,1.2546,1.2571,1.2651,1.2666,1.2721,1.2827,1.2873,1.291,1.2988,1.2997,1.3007,1.3033,1.308,1.3087,1.3094,1.3122,1.3131,1.3014,1.3014,1.3014,0,1.2234,1.2322,1.2355,1.2417,1.2456,1.2474,1.2537,1.2578,1.266,1.2686,1.2677,1.281,1.2856,1.295,1.2969,1.2999,1.3017,1.2998,1.3083,1.3091,1.3098,1.3124,1.3134,1.3015,1.3015,1.3014,1.3014,0,1.2336,1.2397,1.2439,1.2515,1.2559,1.2621,1.2664,1.2704,1.2721,1.2754,1.2835,1.289,1.2962,1.2986,1.3004,1.3084,1.3077,1.3075,1.3058,1.3107,1.3132,1.3143,1.3016,1.3015,1.3015,1.3015,0,0,1.2396,1.2489,1.2504,1.2539,1.2611,1.266,1.2723,1.2792,1.2826,1.2882,1.2936,1.3025,1.3023,1.3065,1.3088,1.3129,1.3187,1.3122,1.3124,1.3132,1.3277,1.3278,1.3289,1.3193,1.3195,1.3197,1.3272,0,1.2466,1.2577,1.2608,1.2703,1.276,1.2778,1.2833,1.2884,1.2917,1.2971,1.3008,1.307,1.3063,1.3089,1.313,1.3171,1.3216,1.3166,1.3245,1.3247,1.3227,1.3302,1.3304,1.3371,1.3282,1.3284,1.3285,0,1.2562,1.2617,1.2717,1.2782,1.2807,1.2856,1.2921,1.2972,1.3031,1.3052,1.3098,1.3117,1.3185,1.3164,1.3257,1.3222,1.3257,1.3282,1.3285,1.3293,1.3268,1.3312,1.3394,1.3403,1.3301,1.33,1.3299,0,1.2595,1.2695,1.2768,1.2797,1.2875,1.2908,1.2942,1.2999,1.3038,1.3096,1.3122,1.3187,1.3223,1.3273,1.331,1.3291,1.34,1.3383,1.342,1.3419,1.3442,1.344,1.3529,1.3465,1.3465,1.3465,1.3464,0,1.2669,1.2729,1.2783,1.2828,1.2896,1.2932,1.2999,1.3034,1.3084,1.3136,1.3157,1.3206,1.3252,1.3307,1.3337,1.341,1.3426,1.3445,1.3452,1.3443,1.344,1.3466,1.3462,1.3467,1.3467,1.3466,1.3466,0,1.2717,1.2756,1.2836,1.2902,1.292,1.2968,1.3025,1.3069,1.3103,1.3169,1.3186,1.3239,1.3305,1.3347,1.3432,1.3451,1.3531,1.3537,1.3511,1.3514,1.3549,1.3544,1.3657,1.3673,1.3598,1.3599,1.3599,0,1.2761,1.2807,1.2878,1.2914,1.2948,1.3006,1.3045,1.3082,1.3123,1.3193,1.3229,1.3296,1.3352,1.3457,1.3503,1.3568,1.3576,1.361,1.3586,1.3574,1.3575,1.3572,1.3576,1.3614,1.3615,1.3615,1.3616,0,1.2835,1.2852,1.2907,1.297,1.3016,1.3067,1.3119,1.3147,1.3193,1.3238,1.3305,1.3348,1.3433,1.35,1.3569,1.3605,1.3618,1.3623,1.3635,1.3626,1.3608,1.3618,1.3521,1.3621,1.362,1.362,1.3619,1.3619,1.2882,1.2924,1.298,1.3041,1.3083,1.3131,1.3175,1.3214,1.327,1.3341,1.336,1.343,1.3488,1.3581,1.3619,1.3675,1.367,1.3688,1.3692,1.3696,1.3696,1.36,1.3688,1.3688,1.3688,1.3688,1.3688,0,1.2956,1.2993,1.3049,1.3119,1.3168,1.3175,1.3232,1.3272,1.3333,1.3385,1.3438,1.3515,1.358,1.3631,1.3698,1.3733,1.3741,1.3749,1.3747,1.3755,1.3697,1.3679,1.3742,1.3742,1.3742,1.3742,1.3742,1.3742,1.3001,1.3072,1.3095,1.3187,1.3224,1.3292,1.3324,1.3368,1.3409,1.3494,1.3547,1.3579,1.3631,1.3702,1.3761,1.3775,1.3798,1.3805,1.382,1.3765,1.3759,1.3753,1.3737,1.381,1.381,1.3873,1.3874,1.3874]},{"header":{"parameterUnit":"m.s-1","parameterCategory":1,"la1":30.2991,"la2":30.254,"lo1":-89.0895,"lo2":-89.0444,"dy":0.0017,"dx":0.0017,"nx":28,"ny":28,"refTime":"2024-07-13T03:00:00:Z","depth":0,"parameterNumber":3,"parameterNumberName":"V-component_of_WINDS"},"data":[0,0,0,0,0,0,0,0,0,0,0,0,0,0,0,0,0,0,0,0,0,0,0,0,0,0,0,0,0,0,0,0,0,0,0,0,0,0,0,0,0,0,0,0,0,0,0,0,0,0,0,0,0,0,0,0,0,0,3.2398,3.2398,0,3.2401,3.2401,3.2401,3.2414,3.2414,3.2414,3.2415,3.2416,3.2415,3.2415,0,0,0,0,0,0,0,0,0,0,0,0,0,3.2403,3.2403,3.2398,3.2398,3.2398,3.2401,3.2401,3.2401,3.2414,3.2414,3.2414,3.2415,3.2416,3.2415,3.2415,0,0,0,0,0,0,0,0,0,0,0,0,0,3.2403,3.2403,3.2398,3.2405,3.2406,3.2401,3.2401,3.2401,3.2414,3.2414,3.2415,3.2415,3.2416,3.2416,3.2415,3.2403,0,0,3.2414,3.2414,0,0,0,0,0,0,0,0,3.2403,3.2403,3.2404,3.2405,3.2405,3.2408,3.2403,3.2402,3.2413,3.2411,3.2415,3.2415,3.2413,3.2412,3.2412,3.2404,3.2404,3.2414,3.2414,3.2414,3.2413,0,0,0,0,0,0,0,3.2403,3.2402,3.2399,3.2404,3.2405,3.2407,3.2408,3.2403,3.2409,3.2411,3.2412,3.2412,3.2413,3.2412,3.2412,3.2404,3.2414,3.2414,3.2413,3.2413,3.2385,3.2384,0,0,0,0,0,0,3.2402,3.2402,3.2399,3.2399,3.2405,3.2407,3.2408,3.2406,3.2409,3.241,3.2412,3.2413,3.2413,3.2412,3.2412,3.2398,3.2414,3.2413,3.2413,3.2385,3.2384,3.2384,0,0,0,0,0,0,3.2402,3.2402,3.2399,3.2401,3.2401,3.2406,3.2405,3.2406,3.2405,3.241,3.2411,3.241,3.2413,3.2413,3.2405,3.2398,3.2413,3.2413,3.2386,3.2385,3.2384,3.2369,0,0,0,0,0,0,3.2402,3.2402,3.2398,3.2401,3.2401,3.2393,3.2405,3.2406,3.2405,3.2406,3.2408,3.2409,3.2413,3.2406,3.2405,3.2398,3.2412,3.2386,3.2385,3.2384,3.2371,3.2368,3.2366,0,0,0,0,0,3.2402,3.2393,3.2397,3.2397,3.2396,3.2393,3.2392,3.2398,3.2404,3.24,3.2402,3.2409,3.2399,3.2405,3.2404,3.2397,3.2387,3.2386,3.2384,3.2372,3.2369,3.2366,0,0,0,0,0,0,3.2389,3.2394,3.2398,3.239,3.2391,3.2395,3.239,3.2395,3.2393,3.2395,3.2401,3.2402,3.2393,3.2394,3.2401,3.2385,3.2394,3.2392,3.2384,3.2382,3.238,3.2379,3.2412,0,0,0,0,0,3.2385,3.2382,3.2386,3.2379,3.2379,3.2384,3.2383,3.2387,3.2388,3.2388,3.239,3.239,3.2387,3.2384,3.2382,3.2371,3.2371,3.2365,3.2363,3.2361,3.236,3.2353,3.235,3.238,3.238,3.238,0,0,3.2376,3.2379,3.2377,3.2376,3.2377,3.2373,3.2384,3.238,3.2377,3.2387,3.238,3.2382,3.2382,3.2372,3.2369,3.2373,3.2351,3.236,3.2358,3.2358,3.2351,3.2349,3.2346,3.2379,3.2379,3.2379,0,0,3.2359,3.2362,3.2355,3.2356,3.2357,3.236,3.2359,3.2362,3.2363,3.2356,3.2364,3.236,3.2355,3.2354,3.2353,3.2335,3.2341,3.2334,3.2323,3.2316,3.2314,3.2311,3.2304,3.2301,3.2333,3.2333,3.2333,0,3.2349,3.2344,3.2351,3.2346,3.2345,3.2354,3.2347,3.2347,3.2348,3.2346,3.2352,3.2345,3.2346,3.2336,3.2331,3.2331,3.2328,3.2334,3.2313,3.2311,3.231,3.2303,3.23,3.2332,3.2332,3.2332,3.2332,0,3.233,3.2327,3.2321,3.2321,3.232,3.2314,3.2319,3.2317,3.2321,3.2324,3.2316,3.2318,3.2315,3.2313,3.2317,3.2303,3.2306,3.2312,3.2322,3.2306,3.2299,3.2297,3.2331,3.2331,3.2331,3.2331,0,0,3.2305,3.2309,3.2306,3.2306,3.2308,3.2305,3.2299,3.2297,3.2294,3.2294,3.2288,3.2283,3.2289,3.2288,3.2292,3.2286,3.2271,3.2293,3.2293,3.2288,3.2254,3.2249,3.2246,3.2274,3.2274,3.2274,3.2254,0,3.2288,3.2278,3.2284,3.2273,3.2269,3.2278,3.2273,3.2273,3.2275,3.2271,3.2274,3.227,3.2278,3.2277,3.2272,3.2274,3.2264,3.2275,3.2268,3.2268,3.2267,3.2243,3.2237,3.2219,3.2252,3.2251,3.2251,0,3.2267,3.2266,3.2255,3.2257,3.2255,3.225,3.2248,3.2245,3.2245,3.2247,3.2245,3.2251,3.2244,3.2253,3.2244,3.2251,3.2249,3.2249,3.2249,3.2248,3.2258,3.224,3.2213,3.221,3.2247,3.2247,3.2248,0,3.2248,3.2244,3.2236,3.2236,3.2238,3.2235,3.2235,3.2236,3.2234,3.2232,3.223,3.2228,3.2226,3.2223,3.2227,3.2234,3.2216,3.2226,3.2217,3.2216,3.2212,3.2212,3.2183,3.2212,3.2212,3.2212,3.2212,0,3.2228,3.222,3.2228,3.2223,3.2215,3.2221,3.2213,3.2214,3.2214,3.221,3.2217,3.2212,3.2218,3.2213,3.2216,3.2207,3.2207,3.2207,3.2208,3.2206,3.2206,3.2204,3.2205,3.2211,3.2211,3.2211,3.2212,0,3.2205,3.221,3.2202,3.2205,3.2206,3.2199,3.2201,3.2197,3.2199,3.2193,3.2192,3.2196,3.2191,3.2194,3.2189,3.2191,3.2179,3.2182,3.2179,3.218,3.2169,3.217,3.2138,3.2133,3.2165,3.2165,3.2165,0,3.2192,3.2186,3.2189,3.2186,3.2186,3.2182,3.218,3.2186,3.2184,3.2183,3.2178,3.2174,3.217,3.2162,3.2164,3.2159,3.2162,3.2151,3.2161,3.2159,3.216,3.216,3.2159,3.2148,3.2148,3.2148,3.2147,0,3.2167,3.217,3.2167,3.2164,3.2162,3.216,3.2159,3.2157,3.2163,3.2159,3.2154,3.2152,3.2147,3.2142,3.2138,3.2138,3.2143,3.2144,3.2142,3.2139,3.2138,3.2137,3.2172,3.2145,3.2145,3.2145,3.2145,3.2146,3.2148,3.2143,3.2144,3.214,3.214,3.2139,3.2134,3.2136,3.2133,3.2129,3.2133,3.2126,3.2126,3.2121,3.212,3.2115,3.2119,3.2116,3.2115,3.2114,3.2112,3.2139,3.2115,3.2115,3.2115,3.2115,3.2115,0,3.2123,3.2124,3.212,3.2119,3.2115,3.2122,3.212,3.2117,3.2112,3.2111,3.2107,3.2101,3.2096,3.2098,3.2093,3.2088,3.2091,3.2087,3.2087,3.2086,3.2109,3.2111,3.2085,3.2085,3.2085,3.2085,3.2085,3.2085,3.2109,3.2101,3.2104,3.2095,3.2096,3.2091,3.2089,3.2088,3.2087,3.208,3.2076,3.2077,3.2077,3.2072,3.2067,3.2068,3.2065,3.2061,3.2062,3.2082,3.2085,3.2088,3.209,3.206,3.206,3.204,3.204,3.204]}]]